Burleson, TX

2:31 PM CST on December 06, 2016 (GMT -0600)
Fort Worth Spinks

Weather History for KFWS - August, 2013

Change the Weather History Date:

Monday, August 5, 2013

  Actual Average (KNFW) Record (KNFW)
Temperature  
Mean Temperature 90 °F -  
Max Temperature 101 °F 94 °F 108 °F (2011)
Min Temperature 79 °F 75 °F 75 °F (1998)
Cooling Degree Days 24    
Growing Degree Days 40 (Base 50)    
Moisture  
Dew Point 64 °F    
Average Humidity 48    
Maximum Humidity 70    
Minimum Humidity 27    
Precipitation  
Precipitation 0.00 in - - ()
Sea Level Pressure  
Sea Level Pressure 29.95 in    
Wind  
Wind Speed 6 mph (South)    
Max Wind Speed 12 mph    
Max Gust Speed 16 mph    
Visibility 10 miles    
Events      
Averages and records for this station are not official NWS values.
T = Trace of Precipitation, MM = Missing Value Source: NWS Daily Summary

Daily Weather History Graph

Daily Weather History Graph

Search for Another Location

Airport or City:

Trip Planner

Search our weather history database for the weather conditions in past years. The results will help you decide how hot, cold, wet, or windy it might be!

Date:

Astronomy

Aug. 05, 2013 Rise Set
Actual Time 6:46 AM CDT 8:23 PM CDT
Civil Twilight 6:19 AM CDT 8:50 PM CDT
Nautical Twilight 5:47 AM CDT 9:21 PM CDT
Astronomical Twilight 5:14 AM CDT 9:55 PM CDT
Moon 5:41 AM CDT (8/5) 7:26 PM CDT (8/5)
Length of Visible Light 14h 30m
Length of Day
13h 37m
Waning Crescent, 1% of the Moon is Illuminated
Aug 5
Waning Crescent
Aug 6
New
Aug 14
First Quarter
Aug 20
Full
Aug 28
Last Quarter

Hourly Weather History & Observations

Time (CDT) Temp. Heat Index Dew Point Humidity Pressure Visibility Wind Dir Wind Speed Gust Speed Precip Events Conditions
12:15 AM 81.9 °F 84.4 °F 67.1 °F 61% 30.00 in 10.0 mi Calm Calm - N/A   Clear
12:35 AM 82.0 °F 84.3 °F 66.6 °F 59% 30.00 in 10.0 mi Calm Calm - N/A   Clear
12:55 AM 81.9 °F 84.2 °F 66.7 °F 60% 30.00 in 10.0 mi Calm Calm - N/A   Clear
1:15 AM 80.8 °F 83.1 °F 66.7 °F 62% 29.98 in 10.0 mi Calm Calm - N/A   Clear
1:35 AM 79.5 °F - 67.1 °F 66% 29.98 in 10.0 mi SE 4.6 mph - N/A   Clear
1:55 AM 83.3 °F 85.5 °F 66.2 °F 56% 29.98 in 10.0 mi SSE 8.1 mph - N/A   Clear
2:15 AM 83.7 °F 86.2 °F 67.1 °F 57% 29.98 in 10.0 mi South 9.2 mph - N/A   Clear
2:35 AM 83.7 °F 86.7 °F 68.0 °F 59% 29.99 in 10.0 mi South 8.1 mph - N/A   Clear
2:55 AM 84.2 °F 87.9 °F 68.9 °F 60% 29.99 in 10.0 mi South 10.4 mph - N/A   Clear
3:15 AM 83.8 °F 87.5 °F 68.9 °F 61% 29.99 in 10.0 mi South 9.2 mph - N/A   Clear
3:35 AM 83.7 °F 87.2 °F 69.1 °F 61% 30.00 in 10.0 mi South 8.1 mph - N/A   Clear
3:55 AM 83.5 °F 87.4 °F 69.8 °F 63% 29.99 in 10.0 mi South 9.2 mph - N/A   Clear
4:15 AM 82.6 °F 86.4 °F 69.8 °F 65% 29.99 in 10.0 mi South 9.2 mph - N/A   Clear
4:35 AM 82.6 °F 86.4 °F 69.8 °F 65% 29.99 in 10.0 mi South 10.4 mph 16.1 mph N/A   Clear
4:55 AM 82.0 °F 85.7 °F 69.8 °F 66% 29.99 in 10.0 mi South 11.5 mph - N/A   Clear
5:15 AM 81.9 °F 85.6 °F 70.0 °F 67% 29.99 in 10.0 mi South 5.8 mph - N/A   Clear
5:35 AM 81.0 °F 84.4 °F 69.8 °F 69% 30.00 in 10.0 mi SSW 6.9 mph - N/A   Clear
5:55 AM 80.6 °F 83.9 °F 69.8 °F 70% 30.00 in 10.0 mi South 6.9 mph - N/A   Clear
6:15 AM 80.1 °F 83.0 °F 69.6 °F 70% 30.00 in 10.0 mi South 6.9 mph - N/A   Clear
6:49 AM 80.6 °F 83.9 °F 69.8 °F 70% 30.00 in 10.0 mi South 6.9 mph - N/A   Clear
7:56 AM 80.6 °F 82.7 °F 66.2 °F 61% 30.02 in 10.0 mi South 6.9 mph - N/A   Clear
8:46 AM 84.2 °F 86.6 °F 66.2 °F 55% 30.03 in 10.0 mi South 9.2 mph - N/A   Clear
9:51 AM 87.8 °F 88.5 °F 62.6 °F 43% 30.03 in 10.0 mi SSW 11.5 mph - N/A   Clear
10:53 AM 91.4 °F 91.4 °F 60.8 °F 36% 30.03 in 10.0 mi SSW 11.5 mph - N/A   Clear
11:49 AM 95.0 °F 95.2 °F 60.8 °F 32% 30.02 in 10.0 mi South 8.1 mph - N/A   Clear
12:59 PM 98.6 °F 100.0 °F 62.6 °F 30% 29.99 in 10.0 mi SSW 10.4 mph - N/A   Clear
1:52 PM 98.6 °F 99.4 °F 60.8 °F 29% 29.96 in 10.0 mi South 4.6 mph - N/A   Clear
2:49 PM 100.4 °F 101.3 °F 60.8 °F 27% 29.94 in 10.0 mi SSW 3.5 mph - N/A   Clear
3:49 PM 100.4 °F 101.3 °F 60.8 °F 27% 29.92 in 10.0 mi South 5.8 mph - N/A   Clear
4:53 PM 100.4 °F 102.4 °F 62.6 °F 29% 29.90 in 10.0 mi SSE 9.2 mph - N/A   Clear
5:49 PM 100.4 °F 101.3 °F 60.8 °F 27% 29.88 in 10.0 mi South 10.4 mph - N/A   Clear
6:48 PM 100.4 °F 101.3 °F 60.8 °F 27% 29.87 in 10.0 mi SSE 9.2 mph - N/A   Clear
7:55 PM 95.9 °F 95.7 °F 60.3 °F 30% 29.87 in 10.0 mi South 8.1 mph - N/A   Clear
8:15 PM 94.3 °F 94.1 °F 60.3 °F 32% 29.87 in 10.0 mi SSE 9.2 mph - N/A   Clear
8:35 PM 93.4 °F 92.8 °F 59.5 °F 32% 29.87 in 10.0 mi SSE 8.1 mph - N/A   Clear
8:55 PM 92.5 °F 91.9 °F 59.2 °F 33% 29.87 in 10.0 mi SSE 8.1 mph - N/A   Clear
9:15 PM 90.9 °F 90.0 °F 59.2 °F 34% 29.88 in 10.0 mi SSE 6.9 mph - N/A   Clear
9:35 PM 89.2 °F 88.7 °F 60.1 °F 37% 29.89 in 10.0 mi SE 4.6 mph - N/A   Clear
9:55 PM 86.9 °F 86.7 °F 60.8 °F 41% 29.89 in 10.0 mi SE 5.8 mph - N/A   Clear
10:15 PM 86.4 °F 86.3 °F 60.6 °F 42% 29.89 in 10.0 mi SSE 6.9 mph - N/A   Clear
10:35 PM 87.3 °F 87.0 °F 60.1 °F 40% 29.90 in 10.0 mi SSE 6.9 mph - N/A   Clear
10:55 PM 86.4 °F 86.1 °F 59.9 °F 41% 29.90 in 10.0 mi SSE 8.1 mph - N/A   Clear
11:15 PM 87.4 °F 86.9 °F 59.9 °F 39% 29.89 in 10.0 mi SSE 6.9 mph - N/A   Clear
11:35 PM 87.1 °F 86.5 °F 59.5 °F 39% 29.90 in 10.0 mi South 6.9 mph - N/A   Clear
11:55 PM 86.4 °F 86.1 °F 59.9 °F 41% 29.90 in 10.0 mi SSE 5.8 mph - N/A   Clear